Regional Weather Roundup
Issued by NWS

Home | Current Version | Previous Version | Graphics & Text | Print | Product List | Glossary On
Versions: 1 2 3 4 5 6 7 8 9 10 11 12 13 14 15 16 17 18 19 20 21 22 23 24 25 26 27 28 29 30 31 32 33 34 35 36 37 38 39 40 41 42 43 44 45 46 47 48 49 50
000
ASUS43 KLMK 251610
RWRKY
KENTUCKY REGIONAL WEATHER ROUNDUP
NATIONAL WEATHER SERVICE LOUISVILLE KY
1200 PM EDT MON MAY 25 2015

NOTE "FAIR" INDICATES FEW OR NO CLOUDS BELOW 12,000 FEET
WITH NO SIGNIFICANT WEATHER AND/OR OBSTRUCTIONS TO VISIBILITY.

KYZ001>023-026-027-061>063-070>075-251700-
WESTERN AND SOUTH CENTRAL KENTUCKY

CITY           SKY/WX    TMP DP  RH WIND       PRES   REMARKS
PADUCAH        CLOUDY    72  66  81 VRB7      30.09R
HENDERSON      CLOUDY    73  64  73 S15G21    30.09S
OWENSBORO      CLOUDY    74  69  84 S16       30.13S
HOPKINSVILLE   LGT RAIN  68  66  94 S14       30.16R
BOWLING GREEN  LGT RAIN  70  65  84 S13       30.19R
GLASGOW        CLOUDY    69  65  88 SW6       30.20R
$$

KYZ024-025-028>034-038-045-046-053-251700-
NORTH CENTRAL KENTUCKY

CITY           SKY/WX    TMP DP  RH WIND       PRES   REMARKS
LOUISVILLE/SDF LGT RAIN  70  65  84 S15       30.15S
LOUISVILLE/LOU LGT RAIN  69  65  86 S9G17     30.16S
FORT KNOX      LGT RAIN  68  64  88 S13       30.15S
$$

KYZ035>037-039>044-047>052-055>060-089>105-251700-
NORTHEAST KENTUCKY

CITY           SKY/WX    TMP DP  RH WIND       PRES   REMARKS
LEXINGTON      CLOUDY    76  59  55 SW18G30   30.19R
COVINGTON      CLOUDY    69  64  84 S13       30.15S
FRANKFORT      CLOUDY    74  61  63 SW14      30.17R
$$

KYZ054-064>069-076>088-106>120-251700-
SOUTHEAST KENTUCKY

CITY           SKY/WX    TMP DP  RH WIND       PRES   REMARKS
JACKSON        SUNNY     78  57  48 VRB5      30.23S
LONDON         PTSUNNY   78  55  44 S10G21    30.22F
SOMERSET       CLOUDY    77  59  53 S10G17    30.22S
MIDDLESBORO    PTSUNNY   77  59  54 S8        30.26S
MONTICELLO     PTSUNNY   79  64  59 S12       30.23F
$$



USA.gov is the U.S. government's official web portal to all federal, state and local government web resources and services.